Tiempo cada hora Daga

Hoy, 28 Noviembre, Sábado

Tiempo Temperatura Precipitaciones Viento Presión Humedad
00:00 +16°C° 0.1 mm 1 mps 616 mmHg 89%
01:00 +16°C° 0.1 mm 1 mps 616 mmHg 89%
02:00 +15°C° 0 mm 1 mps 616 mmHg 89%
03:00 +15°C° 0 mm 1 mps 616 mmHg 89%
04:00 +15°C° 0 mm 1 mps 616 mmHg 90%
05:00 +14°C° 0 mm 0 mps 615 mmHg 90%
06:00 +15°C° 0 mm 0 mps 616 mmHg 88%
07:00 +16°C° 0 mm 0 mps 618 mmHg 86%
08:00 +17°C° 0 mm 0 mps 618 mmHg 85%
09:00 +21°C° 0.3 mm 1 mps 618 mmHg 80%
10:00 +22°C° 0.3 mm 1 mps 619 mmHg 74%
11:00 +24°C° 0.3 mm 2 mps 619 mmHg 69%
12:00 +24°C° 0.7 mm 2 mps 618 mmHg 69%
13:00 +24°C° 0.7 mm 2 mps 618 mmHg 68%
14:00 +25°C° 0.7 mm 2 mps 617 mmHg 68%
15:00 +24°C° 1.9 mm 2 mps 617 mmHg 73%
16:00 +23°C° 1.9 mm 1 mps 616 mmHg 79%
17:00 +22°C° 1.9 mm 1 mps 616 mmHg 85%
18:00 +21°C° 0.8 mm 1 mps 616 mmHg 86%
19:00 +20°C° 0.8 mm 1 mps 616 mmHg 88%
20:00 +18°C° 0.8 mm 1 mps 617 mmHg 89%
21:00 +18°C° 0.4 mm 1 mps 617 mmHg 90%
22:00 +16°C° 0.4 mm 1 mps 616 mmHg 92%
23:00 +16°C° 0.4 mm 1 mps 616 mmHg 93%

Mañana, 29 Noviembre, Domingo

Tiempo Temperatura Precipitaciones Viento Presión Humedad
00:00 +16°C° 0.2 mm 1 mps 616 mmHg 93%
01:00 +15°C° 0.2 mm 1 mps 616 mmHg 93%
02:00 +15°C° 0.2 mm 1 mps 615 mmHg 93%
03:00 +15°C° 0.3 mm 1 mps 615 mmHg 92%
04:00 +15°C° 0.3 mm 1 mps 615 mmHg 92%
05:00 +15°C° 0.3 mm 1 mps 615 mmHg 92%
06:00 +16°C° 0.3 mm 1 mps 617 mmHg 90%
07:00 +16°C° 0.3 mm 0 mps 618 mmHg 88%
08:00 +18°C° 0.3 mm 0 mps 619 mmHg 86%
09:00 +19°C° 1 mm 2 mps 619 mmHg 86%
10:00 +19°C° 1 mm 3 mps 618 mmHg 87%
11:00 +19°C° 1 mm 4 mps 618 mmHg 88%
12:00 +19°C° 0.6 mm 3 mps 618 mmHg 84%
13:00 +20°C° 0.6 mm 3 mps 618 mmHg 80%
14:00 +21°C° 0.6 mm 2 mps 618 mmHg 76%
15:00 +21°C° 0.6 mm 2 mps 617 mmHg 79%
16:00 +21°C° 0.6 mm 1 mps 617 mmHg 81%
17:00 +21°C° 0.6 mm 1 mps 617 mmHg 84%
18:00 +20°C° 0.2 mm 1 mps 617 mmHg 87%
19:00 +16°C° 0.2 mm 0 mps 617 mmHg 89%
20:00 +15°C° 0.2 mm 0 mps 617 mmHg 92%
21:00 +15°C° 0 mm 0 mps 617 mmHg 91%
22:00 +14°C° 0 mm 0 mps 617 mmHg 91%
23:00 +14°C° 0 mm 0 mps 617 mmHg 91%

Pasado mañana, 30 Noviembre, Lunes

Tiempo Temperatura Precipitaciones Viento Presión Humedad
00:00 +14°C° 0 mm 0 mps 616 mmHg 91%
01:00 +15°C° 0 mm 1 mps 616 mmHg 92%
02:00 +15°C° 0 mm 1 mps 616 mmHg 92%
03:00 +15°C° 0 mm 1 mps 616 mmHg 92%
04:00 +15°C° 0 mm 1 mps 616 mmHg 92%
05:00 +14°C° 0 mm 0 mps 616 mmHg 92%
06:00 +16°C° 0 mm 1 mps 617 mmHg 89%
07:00 +18°C° 0 mm 1 mps 618 mmHg 87%
08:00 +19°C° 0 mm 1 mps 619 mmHg 84%
09:00 +21°C° 0.2 mm 1 mps 619 mmHg 80%
10:00 +22°C° 0.2 mm 1 mps 619 mmHg 75%
11:00 +23°C° 0.2 mm 1 mps 620 mmHg 71%
12:00 +23°C° 1.3 mm 1 mps 619 mmHg 73%
13:00 +23°C° 1.3 mm 1 mps 618 mmHg 75%
14:00 +23°C° 1.3 mm 2 mps 618 mmHg 77%
15:00 +22°C° 1.3 mm 1 mps 617 mmHg 82%
16:00 +20°C° 1.3 mm 1 mps 616 mmHg 86%
17:00 +19°C° 1.3 mm 1 mps 616 mmHg 91%
18:00 +19°C° 0.5 mm 1 mps 616 mmHg 91%
19:00 +18°C° 0.5 mm 1 mps 617 mmHg 91%
20:00 +18°C° 0.5 mm 1 mps 617 mmHg 91%
21:00 +16°C° 0.3 mm 1 mps 617 mmHg 91%
22:00 +16°C° 0.3 mm 1 mps 617 mmHg 91%
23:00 +16°C° 0.3 mm 1 mps 617 mmHg 91%

1 Diciembre, Martes

Tiempo Temperatura Precipitaciones Viento Presión Humedad
00:00 +16°C° 0.1 mm 1 mps 617 mmHg 91%
01:00 +16°C° 0.1 mm 1 mps 617 mmHg 91%
02:00 +16°C° 0.1 mm 1 mps 616 mmHg 91%
03:00 +15°C° 0 mm 0 mps 617 mmHg 90%
04:00 +15°C° 0 mm 0 mps 617 mmHg 90%
05:00 +15°C° 0 mm 0 mps 617 mmHg 90%
06:00 +16°C° 0 mm 0 mps 617 mmHg 89%
07:00 +16°C° 0 mm 0 mps 618 mmHg 88%
08:00 +19°C° 0 mm 1 mps 618 mmHg 87%
09:00 +20°C° 1 mm 1 mps 619 mmHg 82%
10:00 +22°C° 1 mm 1 mps 619 mmHg 78%
11:00 +23°C° 1 mm 1 mps 619 mmHg 74%
12:00 +23°C° 1.9 mm 1 mps 618 mmHg 74%
13:00 +23°C° 1.9 mm 1 mps 618 mmHg 75%
14:00 +23°C° 1.9 mm 1 mps 617 mmHg 75%
15:00 +22°C° 2 mm 1 mps 617 mmHg 80%
16:00 +21°C° 2 mm 1 mps 617 mmHg 85%
17:00 +20°C° 2 mm 1 mps 617 mmHg 90%
18:00 +20°C° 1.3 mm 1 mps 617 mmHg 90%
19:00 +19°C° 1.3 mm 1 mps 617 mmHg 91%
20:00 +18°C° 1.3 mm 1 mps 617 mmHg 92%
21:00 +18°C° 0.7 mm 1 mps 617 mmHg 93%
22:00 +16°C° 0.7 mm 1 mps 617 mmHg 94%
23:00 +15°C° 0.7 mm 0 mps 617 mmHg 95%

2 Diciembre, Miércoles

Tiempo Temperatura Precipitaciones Viento Presión Humedad
00:00 +15°C° 0.7 mm 0 mps 617 mmHg 95%
01:00 +15°C° 0.7 mm 0 mps 617 mmHg 95%
02:00 +15°C° 0.7 mm 0 mps 616 mmHg 95%
03:00 +15°C° 0.3 mm 0 mps 616 mmHg 95%
04:00 +15°C° 0.3 mm 0 mps 617 mmHg 95%
05:00 +15°C° 0.3 mm 0 mps 617 mmHg 96%
06:00 +15°C° 0.1 mm 0 mps 617 mmHg 95%
07:00 +15°C° 0.1 mm 0 mps 617 mmHg 94%
08:00 +16°C° 0.1 mm 0 mps 618 mmHg 93%
09:00 +17°C° 0.5 mm 0 mps 618 mmHg 89%
10:00 +19°C° 0.5 mm 0 mps 618 mmHg 84%
11:00 +20°C° 0.5 mm 0 mps 619 mmHg 79%
12:00 +21°C° 1.5 mm 0 mps 618 mmHg 78%
13:00 +23°C° 1.5 mm 1 mps 617 mmHg 76%
14:00 +23°C° 1.5 mm 1 mps 617 mmHg 75%
15:00 +22°C° 1.6 mm 1 mps 616 mmHg 80%
16:00 +21°C° 1.6 mm 1 mps 616 mmHg 84%
17:00 +21°C° 1.6 mm 1 mps 616 mmHg 89%
18:00 +20°C° 0.3 mm 1 mps 616 mmHg 90%
19:00 +17°C° 0.3 mm 0 mps 616 mmHg 91%
20:00 +16°C° 0.3 mm 0 mps 617 mmHg 91%
21:00 +15°C° 0 mm 0 mps 617 mmHg 92%
22:00 +15°C° 0 mm 0 mps 617 mmHg 92%
23:00 +15°C° 0 mm 0 mps 617 mmHg 93%

3 Diciembre, Jueves

Tiempo Temperatura Precipitaciones Viento Presión Humedad
00:00 +15°C° 0 mm 0 mps 616 mmHg 93%
01:00 +14°C° 0 mm 0 mps 616 mmHg 93%
02:00 +14°C° 0 mm 0 mps 615 mmHg 93%
03:00 +14°C° 0 mm 0 mps 616 mmHg 93%
04:00 +14°C° 0 mm 0 mps 616 mmHg 93%
05:00 +14°C° 0 mm 0 mps 616 mmHg 93%
06:00 +14°C° 0 mm 0 mps 617 mmHg 92%
07:00 +15°C° 0 mm 0 mps 617 mmHg 91%
08:00 +16°C° 0 mm 0 mps 618 mmHg 90%
09:00 +17°C° 0.1 mm 0 mps 618 mmHg 88%
10:00 +18°C° 0.1 mm 0 mps 618 mmHg 85%
11:00 +19°C° 0.1 mm 0 mps 618 mmHg 82%
12:00 +22°C° 0.8 mm 1 mps 618 mmHg 80%
13:00 +22°C° 0.8 mm 1 mps 617 mmHg 77%
14:00 +23°C° 0.8 mm 2 mps 617 mmHg 74%
15:00 +23°C° 1.5 mm 2 mps 617 mmHg 79%
16:00 +22°C° 1.5 mm 1 mps 616 mmHg 84%
17:00 +21°C° 1.5 mm 1 mps 616 mmHg 88%
18:00 +20°C° 1.1 mm 1 mps 616 mmHg 90%
19:00 +19°C° 1.1 mm 1 mps 617 mmHg 92%
20:00 +18°C° 1.1 mm 1 mps 617 mmHg 93%
21:00 +18°C° 1.4 mm 1 mps 617 mmHg 95%
22:00 +16°C° 1.4 mm 1 mps 617 mmHg 96%
23:00 +15°C° 1.4 mm 0 mps 617 mmHg 97%
Mostrar más

Necesitamos Su Consentimiento

Meteoprog y nuestros Proveedores de Servicios pueden almacenar y acceder a sus datos personales como cookies, identificadores de dispositivo u otras tecnologías similares de su dispositivo y procesar dichos datos para personalizar contenido y anuncios, además de ofrecer funciones de redes sociales y analizar el tráfico.

  • Almacenar y/o acceder a información en su dispositivo

    Se puede almacenar o acceder a cookies, identificadores de dispositivo u otra información de su dispositivo para los fines anteriormente indicados.

  • Anuncios y contenido personalizados, medición de anuncios y contenido, percepciones del público, y desarrollo de productos

    Los anuncios y el contenido pueden personalizarse en base a su perfil. Se pueden añadir más datos para personalizar mejor los anuncios y contenidos. Se puede medir el rendimiento de los anuncios y contenidos. Se puede obtener la percepción sobre el público que ha visto los anuncios y contenidos. Dichos datos pueden usarse para desarrollar o mejorar la experiencia del usuario, sistemas y software.

Al hacer clic en ‘Estoy De Acuerdo’ usted permitirá el uso de las cookies, identificadores de dispositivo, balizas web u otras tecnologías similares indicadas. Su configuración puede cambiarse desde el navegador de su dispositivo.

Para ciertos fines, los intereses legítimos pueden ser considerados por encima del consentimiento. Puede leer más sobre ello en nuestra Política de Privacidad y Cookies.